CST,Max TemperatureF,Mean TemperatureF,Min TemperatureF,Max Dew PointF,MeanDew PointF,Min DewpointF,Max Humidity, Mean Humidity, Min Humidity, Max Sea Level PressureIn, Mean Sea Level PressureIn, Min Sea Level PressureIn, Max VisibilityMiles, Mean VisibilityMiles, Min VisibilityMiles, Max Wind SpeedMPH, Mean Wind SpeedMPH, Max Gust SpeedMPH,PrecipitationIn, CloudCover, Events, WindDirDegrees
2013-2-1,19,6,-7,14,-3,-17,86,69,56,30.30,30.15,29.96,10,10,9,24,11,29,0.00,4,Snow,214
2013-2-2,30,18,6,28,11,1,100,81,58,30.15,30.04,29.91,10,9,1,30,11,38,0.00,6,Rain-Snow,299
2013-2-3,28,18,8,21,14,5,93,79,68,30.09,29.97,29.76,10,10,5,22,13,40,0.00,6,Snow,274
2013-2-4,23,18,12,19,13,7,93,79,63,30.01,29.90,29.78,10,10,5,20,12,28,0.00,5,Rain-Snow,33
2013-2-5,37,26,15,30,24,14,100,87,70,30.08,29.88,29.70,10,9,4,22,13,30,0.00,6,Snow,308
2013-2-6,39,26,14,34,26,12,93,85,75,30.07,29.95,29.82,10,10,9,26,10,34,0.00,5,Snow,167
2013-2-7,35,28,21,34,27,19,100,96,86,30.21,30.03,29.90,10,4,0,20,10,25,0.00,7,Fog,355
2013-2-8,28,24,21,25,22,19,100,88,80,30.33,30.26,30.18,10,9,6,21,9,25,0.00,8,,124
2013-2-9,35,30,24,30,27,23,100,93,81,30.19,29.99,29.81,9,6,4,24,18,32,0.00,8,Snow,159
2013-2-10,39,34,28,39,34,27,100,99,93,29.80,29.41,29.21,10,4,0,28,17,38,0.31,8,Rain-Snow,163
2013-2-11,28,24,19,28,20,16,100,82,69,30.08,29.87,29.48,10,8,1,34,24,46,0.00,8,Snow,303
2013-2-12,37,28,19,30,24,16,100,84,74,30.09,29.94,29.83,10,10,8,17,8,22,0.00,1,Snow,234
2013-2-13,44,34,24,36,30,23,100,87,71,29.84,29.71,29.61,10,10,10,16,8,25,0.00,4,,244
2013-2-14,37,26,15,32,25,7,100,85,68,30.18,29.91,29.64,10,8,1,25,16,36,0.00,6,Rain-Snow,324
2013-2-15,21,16,10,12,9,5,85,74,63,30.29,30.26,30.19,10,10,10,17,12,21,0.00,3,Snow,326
2013-2-16,30,19,8,21,14,5,100,81,59,30.25,30.12,30.04,10,10,5,12,5,,0.00,1,Snow,183
2013-2-17,39,29,19,30,23,16,93,79,70,30.03,29.83,29.56,10,10,10,29,15,36,0.00,0,Snow,151
2013-2-18,35,20,6,32,20,0,100,80,67,29.89,29.67,29.52,10,9,2,29,15,41,0.00,5,Snow,298
2013-2-19,14,7,0,1,-4,-9,72,64,53,30.35,30.13,29.90,10,10,3,30,23,46,0.00,4,Snow,326
2013-2-20,23,10,-4,10,-1,-11,86,67,46,30.40,30.34,30.28,10,10,10,14,8,16,0.00,0,Snow,43
2013-2-21,26,19,12,18,11,7,93,73,51,30.32,30.14,29.91,10,8,0,23,12,32,0.00,5,Snow,81
2013-2-22,24,15,6,19,16,5,93,89,74,29.92,29.87,29.81,10,6,0,16,12,23,0.01,8,Rain-Snow,337
2013-2-23,23,13,3,18,10,0,93,87,74,29.91,29.88,29.85,10,9,5,13,8,,0.00,2,Snow,226
2013-2-24,30,18,6,27,18,3,100,89,74,30.06,29.99,29.90,7,5,3,8,4,,0.00,5,Snow,122
2013-2-25,26,25,24,27,26,25,100,99,93,30.08,30.04,29.96,4,2,0,12,3,,0.00,8,Fog,11
2013-2-26,28,22,17,27,24,18,100,95,86,29.96,29.86,29.79,7,3,0,20,13,26,0.00,5,Fog-Snow,7
2013-2-27,30,26,21,25,22,19,93,88,75,29.99,29.88,29.81,10,9,5,23,16,31,0.00,4,Snow,344
2013-2-28,28,22,17,25,22,14,93,89,80,30.17,30.11,30.00,10,10,8,16,12,21,0.00,8,Rain,336